CW0526 Weather Reports


time (UTC)temp
C
wind
direction
speed
KPH
gust
KPH
rain 1hr
cm
rain 24hr
cm
rain mn
cm
humidity
%
barometer
mb
20260506073055 6 70 3.2 14.5 0.00 0.00 0.00 74 1017.0
20260506071553 6 57 3.2 8.0 0.00 0.00 0.00 76 1017.1
20260506070554 6 54 3.2 4.8 0.00 0.00 0.00 77 1017.1
20260506061054 5 53 3.2 4.8 0.00 0.00 0.00 79 1017.1
20260506051054 4 67 0.0 0.0 0.00 0.00 0.00 80 1017.2
20260506043554 4 69 0.0 1.6 0.00 0.00 0.00 79 1017.2
20260506043055 4 69 0.0 0.0 0.00 0.00 0.00 79 1017.1
20260506041554 4 69 0.0 1.6 0.00 0.00 0.00 78 1017.1
20260506041054 4 69 1.6 3.2 0.00 0.00 0.00 78 1017.1
20260506040056 5 69 0.0 4.8 0.00 0.00 0.00 78 1017.1
20260506034554 5 71 1.6 4.8 0.00 0.00 0.00 77 1017.1
20260506033554 5 71 1.6 4.8 0.00 0.00 0.00 77 1017.2
20260506031054 5 69 1.6 4.8 0.00 0.00 0.00 77 1017.2
20260506030554 5 71 1.6 3.2 0.00 0.00 0.00 77 1017.3
20260506024554 5 73 1.6 3.2 0.00 0.00 0.00 76 1017.3
20260506024054 5 72 1.6 4.8 0.00 0.00 0.00 76 1017.3
20260506023555 5 73 1.6 4.8 0.00 0.00 0.00 76 1017.2
20260506021054 5 52 3.2 4.8 0.00 0.00 0.00 76 1017.4
20260506014554 5 61 1.6 4.8 0.00 0.00 0.00 75 1017.4
20260506014054 5 60 1.6 4.8 0.00 0.00 0.00 75 1017.4
20260506013555 5 61 3.2 4.8 0.00 0.00 0.00 75 1017.4
20260506011554 6 55 1.6 4.8 0.00 0.00 0.00 75 1017.7
20260506010056 6 50 1.6 4.8 0.00 0.00 0.00 75 1017.7
20260506004055 6 38 3.2 8.0 0.00 0.00 0.00 74 1017.8
20260506003055 6 45 1.6 4.8 0.00 0.00 0.00 74 1017.8
20260506001554 6 32 3.2 8.0 0.00 0.00 0.00 74 1017.7
20260506000554 6 46 3.2 4.8 0.00 0.00 0.00 74 1017.6
20260505233554 6 27 4.8 9.7 0.00 0.00 0.00 73 1017.5
20260505230056 6 63 4.8 14.5 0.00 0.00 0.00 72 1017.8
20260505224554 6 37 4.8 14.5 0.00 0.00 0.00 72 1017.8
20260505224054 6 63 3.2 11.3 0.00 0.00 0.00 72 1017.8
20260505223554 6 54 3.2 12.9 0.00 0.00 0.00 72 1017.8
20260505223056 6 34 4.8 14.5 0.00 0.00 0.00 72 1017.7
20260505221554 6 30 4.8 9.7 0.00 0.00 0.00 72 1017.8
20260505214555 7 38 8.0 19.3 0.00 0.00 0.00 71 1017.6
20260505214054 7 54 8.0 20.9 0.00 0.00 0.00 71 1017.6
20260505213056 7 67 8.0 19.3 0.00 0.00 0.00 71 1017.6
20260505211554 7 71 9.7 16.1 0.00 0.00 0.00 71 1017.6
20260505210555 7 44 6.4 11.3 0.00 0.00 0.00 71 1017.5
20260505204554 7 37 6.4 19.3 0.00 0.00 0.00 71 1017.5
20260505204054 7 37 4.8 16.1 0.00 0.00 0.00 71 1017.5
20260505203554 7 53 8.0 24.1 0.00 0.00 0.00 71 1017.4
20260505203055 7 0 4.8 20.9 0.00 0.00 0.00 71 1017.3
20260505201554 7 25 6.4 14.5 0.00 0.00 0.00 71 1017.3
20260505200057 7 80 8.0 19.3 0.00 0.00 0.00 72 1017.2
20260505193554 7 48 8.0 20.9 0.00 0.00 0.00 70 1017.0
20260505191555 8 36 9.7 20.9 0.00 0.00 0.00 70 1016.8
20260505191055 8 49 8.0 16.1 0.00 0.00 0.00 70 1016.8
20260505184555 9 28 8.0 20.9 0.00 0.00 0.00 68 1016.7
20260505184054 9 45 11.3 22.5 0.00 0.00 0.00 67 1016.6
20260505183555 10 37 11.3 19.3 0.00 0.00 0.00 69 1016.6
20260505181555 10 28 8.0 20.9 0.00 0.00 0.00 66 1016.4
20260505181055 10 27 9.7 19.3 0.00 0.00 0.00 67 1016.4
20260505174555 10 50 8.0 19.3 0.00 0.00 0.00 67 1016.3
20260505174055 11 44 9.7 20.9 0.00 0.00 0.00 67 1016.4
20260505173554 11 30 9.7 20.9 0.00 0.00 0.00 67 1016.3
20260505173056 11 59 12.9 24.1 0.00 0.00 0.00 67 1016.3
20260505171554 11 24 8.0 19.3 0.00 0.00 0.00 67 1016.3
20260505170556 11 59 8.0 19.3 0.00 0.00 0.00 66 1016.2
20260505170056 11 38 9.7 19.3 0.00 0.00 0.00 66 1016.2
20260505164555 11 42 6.4 19.3 0.00 0.00 0.00 67 1016.1
20260505161054 11 48 4.8 19.3 0.00 0.00 0.00 66 1016.1
20260505160555 11 34 8.0 19.3 0.00 0.00 0.00 66 1016.1
20260505153056 12 43 8.0 19.3 0.00 0.00 0.00 66 1016.0
20260505150554 12 46 9.7 19.3 0.00 0.00 0.00 64 1016.0
20260505140555 12 42 9.7 19.3 0.00 0.00 0.00 63 1015.9
20260505124555 14 28 6.4 11.3 0.00 0.00 0.00 54 1015.6
20260505124055 14 19 4.8 11.3 0.00 0.00 0.00 54 1015.6
20260505123555 14 47 4.8 11.3 0.00 0.00 0.00 55 1015.6
20260505123057 13 38 4.8 16.1 0.00 0.00 0.00 57 1015.6
20260505121055 13 36 4.8 12.9 0.00 0.00 0.00 57 1015.7
20260505120555 13 34 4.8 9.7 0.00 0.00 0.00 56 1015.8
20260505120056 13 43 4.8 9.7 0.00 0.00 0.00 61 1015.8
20260505114555 12 43 3.2 9.7 0.00 0.00 0.00 59 1015.8
20260505114055 12 60 4.8 11.3 0.00 0.00 0.00 60 1015.8
20260505113555 12 30 4.8 11.3 0.00 0.00 0.00 59 1015.8
20260505113056 12 35 3.2 11.3 0.00 0.00 0.00 58 1015.8
20260505101555 12 15 3.2 12.9 0.00 0.00 0.00 65 1015.7
20260505101056 12 347 4.8 9.7 0.00 0.00 0.00 64 1015.8
20260505100057 11 317 1.6 9.7 0.00 0.00 0.00 66 1015.6
20260505094555 11 30 1.6 4.8 0.00 0.00 0.00 66 1015.6
20260505093056 11 40 3.2 8.0 0.00 0.00 0.00 68 1015.6
20260505091555 11 3 3.2 4.8 0.00 0.00 0.00 69 1015.5
20260505091055 11 315 1.6 8.0 0.00 0.00 0.00 69 1015.6
20260505084055 11 283 3.2 11.3 0.00 0.00 0.00 73 1015.6
20260505081056 10 327 6.4 9.7 0.00 0.00 0.00 77 1015.5
20260505080555 10 330 6.4 14.5 0.00 0.00 0.00 77 1015.5
20260505074556 9 356 3.2 12.9 0.00 0.00 0.00 79 1015.4
20260505073555 8 287 3.2 12.9 0.00 0.00 0.00 80 1015.3